IK4NOW-13 Weather Reports


time (UTC)temp
C
wind
direction
speed
KPH
gust
KPH
rain 1hr
cm
rain 24hr
cm
rain mn
cm
humidity
%
barometer
mb
20260507233541 14 0.0 0.0 0.00 0.00 0.00 64 1015.1
20260507225036 15 0.0 0.0 0.00 0.00 0.00 63 1015.1
20260507220531 15 0.0 0.0 0.00 0.00 0.00 62 1014.9
20260507212025 16 0.0 0.0 0.00 0.00 0.00 61 1014.6
20260507203520 16 0.0 0.0 0.00 0.00 0.00 59 1014.6
20260507195015 17 0.0 0.0 0.00 0.00 0.00 58 1014.9
20260507190510 17 0.0 0.0 0.00 0.00 0.00 57 1014.3
20260507182004 18 0.0 0.0 0.00 0.00 0.00 56 1014.2
20260507173459 20 0.0 0.0 0.00 0.00 0.00 54 1013.6
20260507164954 21 0.0 0.0 0.00 0.00 0.00 53 1013.7
20260507160449 21 0.0 0.0 0.00 0.00 0.00 52 1013.3
20260507151943 22 0.0 0.0 0.00 0.00 0.00 52 1013.3
20260507143438 22 0.0 0.0 0.00 0.00 0.00 52 1013.6
20260507134933 22 0.0 0.0 0.00 0.00 0.00 52 1013.8
20260507130428 22 0.0 0.0 0.00 0.00 0.00 53 1013.9
20260507121922 22 0.0 0.0 0.00 0.00 0.00 54 1013.8
20260507113417 23 0.0 0.0 0.00 0.00 0.00 52 1013.9
20260507104912 23 0.0 0.0 0.00 0.00 0.00 53 1014.2
20260507100407 22 0.0 0.0 0.00 0.00 0.00 54 1014.4
20260507091902 22 0.0 0.0 0.00 0.00 0.00 56 1014.5
20260507083356 22 0.0 0.0 0.00 0.00 0.00 56 1014.4
20260507074851 21 0.0 0.0 0.00 0.00 0.00 59 1014.2
20260507070346 22 0.0 0.0 0.00 0.00 0.00 60 1014.2
20260507061840 23 0.0 0.0 0.00 0.00 0.00 62 1013.9
20260507053335 15 0.0 0.0 0.00 0.00 0.00 64 1013.7
20260507044830 13 0.0 0.0 0.00 0.00 0.00 62 1013.4
20260507040326 13 0.0 0.0 0.00 0.00 0.00 63 1012.8
20260507031820 14 0.0 0.0 0.00 0.00 0.00 62 1012.5
20260507023314 14 0.0 0.0 0.00 0.00 0.00 62 1012.5
20260507014809 14 0.0 0.0 0.00 0.00 0.00 62 1012.6
20260507010304 15 0.0 0.0 0.00 0.00 0.00 63 1012.4
20260507001759 15 0.0 0.0 0.00 0.00 0.00 63 1012.5